EJA207 KHOU-CYWG

Flight info

Callsign EJA207
Flight time N/A
Altitude 43000
Route STYCK8 WTSON DCT BYP DCT IDLUY DCT LNK DCT FSD DCT FAR DCT LITNA PEPNO5
Aircraft CL30/M-SDFGIRW/S

Departure

Time 2026-05-01 14:07
Airport William P. Hobby Airport (KHOU)

Arrival

Time N/A
Airport Winnipeg / James Armstrong Richardson International Airport (CYWG)
Time Latitude Longitude Altitude Speed Heading
2026-05-01 13:46 29.64678 -95.27299 49 ft 0 kts 284°
2026-05-01 14:02 29.64679 -95.27302 49 ft 0 kts 284°
2026-05-01 14:02 29.64679 -95.27303 49 ft 0 kts 284°
2026-05-01 14:03 29.64689 -95.27335 49 ft 6 kts 297°
2026-05-01 14:03 29.64718 -95.27398 49 ft 8 kts 258°
2026-05-01 14:03 29.64675 -95.27453 49 ft 10 kts 223°
2026-05-01 14:03 29.64633 -95.27499 49 ft 8 kts 224°
2026-05-01 14:04 29.64574 -95.27565 49 ft 12 kts 224°
2026-05-01 14:04 29.64531 -95.27625 50 ft 6 kts 256°
2026-05-01 14:04 29.64577 -95.27705 49 ft 16 kts 314°
2026-05-01 14:04 29.64680 -95.27827 50 ft 25 kts 314°
2026-05-01 14:05 29.64804 -95.27977 49 ft 24 kts 314°
2026-05-01 14:05 29.64910 -95.28103 49 ft 19 kts 314°
2026-05-01 14:05 29.65016 -95.28228 49 ft 23 kts 315°
2026-05-01 14:05 29.65116 -95.28348 49 ft 16 kts 307°
2026-05-01 14:06 29.65128 -95.28373 49 ft 0 kts 286°
2026-05-01 14:06 29.65129 -95.28379 49 ft 4 kts 270°
2026-05-01 14:06 29.65046 -95.28466 49 ft 5 kts 180°
2026-05-01 14:06 29.64962 -95.28392 49 ft 28 kts 135°
2026-05-01 14:07 29.64658 -95.28031 50 ft 104 kts 133°
2026-05-01 14:07 29.63987 -95.27264 266 ft 159 kts 133°
2026-05-01 14:07 29.63227 -95.26437 1277 ft 154 kts 133°
2026-05-01 14:08 29.61670 -95.24732 3054 ft 163 kts 131°
2026-05-01 14:08 29.61232 -95.23621 3907 ft 159 kts 86°
2026-05-01 14:08 29.61539 -95.22470 4722 ft 156 kts 47°
2026-05-01 14:08 29.62420 -95.21885 5516 ft 154 kts
2026-05-01 14:09 29.63395 -95.22201 6294 ft 156 kts 326°
2026-05-01 14:09 29.64291 -95.22863 7104 ft 158 kts 330°
2026-05-01 14:09 29.65234 -95.23444 7886 ft 160 kts 333°
2026-05-01 14:09 29.66223 -95.23977 8650 ft 162 kts 336°
2026-05-01 14:10 29.67256 -95.24479 9401 ft 165 kts 337°
2026-05-01 14:10 29.68300 -95.24947 10121 ft 167 kts 338°
2026-05-01 14:10 29.69356 -95.25394 10815 ft 170 kts 339°
2026-05-01 14:10 29.70455 -95.25841 11506 ft 172 kts 339°
2026-05-01 14:11 29.71562 -95.26277 12173 ft 174 kts 340°
2026-05-01 14:11 29.73833 -95.27144 13571 ft 174 kts 339°
2026-05-01 14:11 29.74974 -95.27573 14242 ft 174 kts 339°
2026-05-01 14:12 29.76098 -95.27992 14884 ft 174 kts 338°
2026-05-01 14:12 29.77246 -95.28419 15525 ft 174 kts 338°
2026-05-01 14:12 29.78374 -95.28838 16138 ft 174 kts 337°
2026-05-01 14:12 29.79522 -95.29263 16748 ft 174 kts 337°
2026-05-01 14:13 29.80646 -95.29678 17328 ft 174 kts 336°
2026-05-01 14:13 29.81414 -95.29962 17717 ft 174 kts 336°
2026-05-01 14:13 29.82950 -95.30529 18477 ft 174 kts 336°
2026-05-01 14:13 29.84104 -95.30956 19036 ft 174 kts 335°
2026-05-01 14:14 29.85246 -95.31377 19578 ft 174 kts 335°
2026-05-01 14:14 29.86380 -95.31795 20099 ft 175 kts 335°
2026-05-01 14:14 29.87529 -95.32220 20615 ft 175 kts 334°
2026-05-01 14:14 29.88678 -95.32645 21117 ft 175 kts 334°
2026-05-01 14:15 29.89840 -95.33074 21615 ft 175 kts 334°
2026-05-01 14:15 29.90999 -95.33502 22101 ft 175 kts 333°
2026-05-01 14:15 29.92147 -95.33926 22566 ft 176 kts 333°
2026-05-01 14:15 29.93305 -95.34355 23025 ft 176 kts 333°
2026-05-01 14:16 29.94467 -95.34785 23474 ft 176 kts 332°
2026-05-01 14:16 29.95628 -95.35214 23912 ft 177 kts 332°
2026-05-01 14:16 29.96789 -95.35644 24344 ft 177 kts 332°
2026-05-01 14:16 29.97956 -95.36075 24765 ft 177 kts 332°
2026-05-01 14:17 29.99120 -95.36507 25171 ft 177 kts 331°
2026-05-01 14:17 30.00295 -95.36942 25572 ft 178 kts 331°
2026-05-01 14:17 30.01480 -95.37380 25965 ft 178 kts 331°
2026-05-01 14:17 30.02644 -95.37811 26343 ft 179 kts 331°
2026-05-01 14:18 30.03824 -95.38248 26713 ft 179 kts 330°
2026-05-01 14:18 30.05016 -95.38690 27088 ft 179 kts 330°
2026-05-01 14:18 30.06195 -95.39127 27445 ft 179 kts 330°
2026-05-01 14:18 30.06971 -95.39415 27675 ft 180 kts 330°
2026-05-01 14:19 30.08571 -95.40009 28135 ft 180 kts 329°
2026-05-01 14:19 30.09771 -95.40408 28470 ft 183 kts 331°
2026-05-01 14:19 30.10848 -95.40989 28789 ft 174 kts 322°
2026-05-01 14:19 30.11926 -95.41625 29119 ft 175 kts 322°
2026-05-01 14:20 30.13013 -95.42254 29447 ft 176 kts 322°
2026-05-01 14:20 30.15221 -95.43516 30094 ft 176 kts 322°
2026-05-01 14:20 30.16325 -95.44144 30392 ft 177 kts 322°
2026-05-01 14:21 30.17433 -95.44775 30699 ft 177 kts 322°
2026-05-01 14:21 30.18529 -95.45397 31003 ft 177 kts 322°
2026-05-01 14:21 30.19619 -95.46014 31284 ft 178 kts 322°
2026-05-01 14:22 30.21844 -95.47274 31851 ft 178 kts 321°
2026-05-01 14:22 30.22941 -95.47894 32115 ft 179 kts 321°
2026-05-01 14:22 30.24056 -95.48525 32395 ft 179 kts 321°
2026-05-01 14:22 30.25173 -95.49155 32667 ft 179 kts 321°
2026-05-01 14:23 30.26299 -95.49792 32926 ft 179 kts 321°
2026-05-01 14:23 30.27417 -95.50424 33170 ft 180 kts 321°
2026-05-01 14:23 30.28537 -95.51056 33412 ft 181 kts 321°
2026-05-01 14:23 30.29669 -95.51695 33659 ft 181 kts 321°
2026-05-01 14:24 30.30794 -95.52331 33900 ft 181 kts 320°
2026-05-01 14:24 30.31918 -95.52966 34121 ft 182 kts 321°
2026-05-01 14:24 30.33058 -95.53611 34335 ft 183 kts 320°
2026-05-01 14:24 30.34213 -95.54265 34537 ft 184 kts 321°
2026-05-01 14:25 30.35364 -95.54915 34739 ft 185 kts 321°
2026-05-01 14:25 30.36514 -95.55566 34958 ft 185 kts 321°
2026-05-01 14:25 30.37670 -95.56220 35150 ft 186 kts 321°
2026-05-01 14:25 30.38837 -95.56880 35334 ft 188 kts 321°
2026-05-01 14:26 30.40016 -95.57547 35515 ft 189 kts 321°
2026-05-01 14:26 30.42386 -95.58888 35902 ft 190 kts 321°
2026-05-01 14:26 30.43568 -95.59556 36105 ft 189 kts 321°
2026-05-01 14:27 30.44765 -95.60233 36304 ft 189 kts 321°
2026-05-01 14:27 30.45947 -95.60902 36484 ft 189 kts 321°
2026-05-01 14:27 30.47124 -95.61568 36660 ft 189 kts 321°
2026-05-01 14:28 30.49472 -95.62899 36988 ft 189 kts 321°
2026-05-01 14:28 30.50661 -95.63573 37157 ft 188 kts 321°
2026-05-01 14:28 30.51824 -95.64233 37297 ft 189 kts 321°
2026-05-01 14:28 30.53021 -95.64912 37443 ft 189 kts 321°
2026-05-01 14:29 30.54194 -95.65545 37590 ft 189 kts 322°
2026-05-01 14:29 30.55383 -95.66180 37698 ft 189 kts 322°
2026-05-01 14:30 30.58991 -95.68108 38020 ft 190 kts 322°
2026-05-01 14:30 30.60196 -95.68752 38128 ft 190 kts 322°
2026-05-01 14:30 30.61386 -95.69388 38252 ft 189 kts 322°
2026-05-01 14:31 30.63773 -95.70664 38439 ft 190 kts 322°
2026-05-01 14:31 30.64976 -95.71307 38530 ft 190 kts 322°
2026-05-01 14:31 30.66166 -95.71944 38616 ft 190 kts 322°
2026-05-01 14:31 30.67374 -95.72589 38711 ft 190 kts 322°
2026-05-01 14:32 30.68565 -95.73226 38795 ft 190 kts 322°
2026-05-01 14:32 30.69763 -95.73867 38873 ft 190 kts 322°
2026-05-01 14:32 30.70954 -95.74504 38943 ft 190 kts 322°
2026-05-01 14:32 30.72160 -95.75150 39034 ft 189 kts 322°
2026-05-01 14:33 30.73346 -95.75786 39101 ft 190 kts 322°
2026-05-01 14:33 30.74555 -95.76434 39168 ft 190 kts 322°
2026-05-01 14:33 30.75757 -95.77077 39241 ft 190 kts 322°
2026-05-01 14:33 30.76955 -95.77718 39295 ft 190 kts 322°
2026-05-01 14:34 30.78163 -95.78367 39375 ft 190 kts 322°
2026-05-01 14:34 30.79348 -95.79002 39444 ft 189 kts 322°
2026-05-01 14:34 30.80534 -95.79638 39507 ft 189 kts 322°
2026-05-01 14:34 30.81720 -95.80274 39560 ft 190 kts 322°
2026-05-01 14:35 30.82916 -95.80917 39605 ft 190 kts 322°
2026-05-01 14:35 30.84115 -95.81560 39673 ft 189 kts 322°
2026-05-01 14:35 30.85306 -95.82200 39714 ft 190 kts 322°
2026-05-01 14:35 30.86501 -95.82842 39758 ft 190 kts 322°
2026-05-01 14:36 30.87706 -95.83488 39803 ft 190 kts 322°
2026-05-01 14:36 30.88909 -95.84135 39838 ft 191 kts 322°
2026-05-01 14:36 30.90098 -95.84775 39895 ft 190 kts 322°
2026-05-01 14:36 30.91305 -95.85424 39934 ft 191 kts 322°
2026-05-01 14:37 30.92505 -95.86070 39948 ft 192 kts 322°
2026-05-01 14:37 30.93712 -95.86719 39978 ft 192 kts 322°
2026-05-01 14:37 30.94920 -95.87370 40017 ft 192 kts 322°
2026-05-01 14:37 30.96143 -95.88028 40057 ft 192 kts 322°
2026-05-01 14:38 30.97339 -95.88673 40086 ft 193 kts 322°
2026-05-01 14:38 30.98562 -95.89331 40106 ft 193 kts 322°
2026-05-01 14:38 30.99784 -95.89990 40133 ft 194 kts 323°
2026-05-01 14:38 31.01008 -95.90649 40162 ft 194 kts 323°
2026-05-01 14:39 31.02222 -95.91303 40185 ft 195 kts 323°
2026-05-01 14:39 31.03466 -95.91975 40209 ft 195 kts 323°
2026-05-01 14:39 31.04685 -95.92632 40230 ft 195 kts 323°
2026-05-01 14:39 31.05921 -95.93298 40263 ft 195 kts 323°
2026-05-01 14:40 31.07153 -95.93963 40295 ft 195 kts 323°
2026-05-01 14:40 31.08395 -95.94633 40325 ft 195 kts 323°
2026-05-01 14:40 31.09615 -95.95291 40353 ft 195 kts 323°
2026-05-01 14:40 31.10833 -95.95949 40387 ft 195 kts 323°
2026-05-01 14:41 31.12074 -95.96588 40420 ft 201 kts 330°
2026-05-01 14:41 31.13455 -95.96948 40452 ft 207 kts 333°
2026-05-01 14:41 31.14871 -95.97285 40508 ft 207 kts 333°
2026-05-01 14:41 31.16266 -95.97615 40579 ft 207 kts 333°
2026-05-01 14:42 31.17536 -95.97913 40651 ft 207 kts 333°
2026-05-01 14:42 31.18889 -95.98386 42804 ft 206 kts 329°
2026-05-01 14:42 31.20322 -95.98759 42873 ft 214 kts 335°
2026-05-01 14:42 31.21788 -95.99049 42869 ft 211 kts 335°
2026-05-01 14:43 31.23223 -95.99334 42835 ft 212 kts 336°
2026-05-01 14:43 31.24747 -95.99766 43219 ft 269 kts 309°
2026-05-01 14:43 31.25720 -96.01288 43689 ft 235 kts 313°
2026-05-01 14:43 31.27261 -96.02121 43533 ft 259 kts 335°
2026-05-01 14:44 31.29154 -96.02383 43185 ft 290 kts 348°
2026-05-01 14:44 31.33223 -96.02445 43071 ft 296 kts 343°
2026-05-01 14:44 31.35263 -96.02645 43009 ft 300 kts 342°
2026-05-01 14:45 31.37392 -96.02937 42712 ft 311 kts 341°
2026-05-01 14:45 31.41786 -96.03699 42176 ft 336 kts 340°
2026-05-01 14:45 31.44131 -96.04160 41904 ft 349 kts 340°
2026-05-01 14:46 31.46545 -96.04658 41632 ft 363 kts 340°
2026-05-01 14:46 31.51706 -96.05772 41112 ft 388 kts 340°
2026-05-01 14:46 31.54342 -96.06355 41088 ft 395 kts 340°
2026-05-01 14:47 31.59802 -96.07580 41081 ft 406 kts 340°
2026-05-01 14:48 31.68219 -96.09489 41077 ft 412 kts 340°
2026-05-01 14:48 31.76566 -96.11395 41078 ft 408 kts 340°
2026-05-01 14:49 31.87656 -96.13939 41083 ft 409 kts 340°
2026-05-01 14:50 31.98764 -96.16493 41084 ft 409 kts 340°
2026-05-01 14:51 32.07137 -96.18423 41087 ft 409 kts 340°
2026-05-01 14:52 32.15435 -96.20338 41099 ft 409 kts 340°
2026-05-01 14:52 32.21149 -96.21026 41103 ft 420 kts 349°
2026-05-01 14:53 32.24048 -96.21117 41099 ft 420 kts 349°
2026-05-01 14:53 32.29874 -96.21256 41097 ft 421 kts 349°
2026-05-01 14:54 32.35716 -96.21371 41096 ft 421 kts 349°
2026-05-01 14:54 32.41546 -96.21476 41092 ft 421 kts 349°
2026-05-01 14:55 32.47379 -96.21577 41089 ft 421 kts 349°
2026-05-01 14:55 32.53212 -96.21677 41087 ft 421 kts 349°
2026-05-01 14:56 32.59030 -96.21777 41087 ft 421 kts 349°
2026-05-01 14:56 32.64901 -96.21877 41086 ft 421 kts 349°
2026-05-01 14:57 32.70738 -96.21976 41086 ft 421 kts 349°
2026-05-01 14:57 32.79510 -96.22127 41086 ft 421 kts 349°
2026-05-01 14:58 32.85339 -96.22227 41089 ft 421 kts 349°
2026-05-01 14:58 32.91205 -96.22327 41095 ft 421 kts 349°
2026-05-01 14:59 32.97035 -96.22428 41099 ft 421 kts 349°
2026-05-01 14:59 33.02939 -96.22537 41102 ft 430 kts 351°
2026-05-01 15:00 33.08989 -96.22646 41104 ft 441 kts 352°
2026-05-01 15:00 33.12054 -96.22700 41109 ft 447 kts 353°
2026-05-01 15:01 33.18277 -96.22800 41109 ft 452 kts 353°
2026-05-01 15:01 33.24531 -96.22903 41106 ft 449 kts 353°
2026-05-01 15:02 33.30767 -96.23010 41107 ft 447 kts 353°
2026-05-01 15:02 33.36956 -96.23117 41107 ft 447 kts 353°
2026-05-01 15:03 33.43156 -96.23225 41107 ft 448 kts 353°
2026-05-01 15:03 33.49387 -96.23334 41115 ft 448 kts 353°
2026-05-01 15:04 33.55584 -96.23415 41125 ft 446 kts 351°
2026-05-01 15:04 33.61733 -96.24221 41142 ft 443 kts 348°
2026-05-01 15:05 33.67840 -96.24978 41143 ft 444 kts 348°
2026-05-01 15:05 33.73982 -96.25700 41148 ft 444 kts 348°
2026-05-01 15:06 33.80085 -96.26405 41150 ft 444 kts 348°
2026-05-01 15:06 33.86229 -96.27110 41150 ft 444 kts 348°
2026-05-01 15:07 33.92348 -96.27812 41150 ft 444 kts 348°
2026-05-01 15:07 33.98507 -96.28519 41150 ft 444 kts 348°
2026-05-01 15:08 34.04653 -96.29224 41150 ft 444 kts 348°
2026-05-01 15:08 34.10768 -96.29928 41151 ft 444 kts 348°
2026-05-01 15:09 34.16889 -96.30633 41153 ft 444 kts 348°
2026-05-01 15:09 34.23031 -96.31341 41153 ft 444 kts 348°
2026-05-01 15:10 34.29158 -96.32049 41152 ft 444 kts 348°
2026-05-01 15:10 34.38280 -96.33104 41149 ft 444 kts 348°
2026-05-01 15:11 34.47552 -96.34180 41146 ft 444 kts 348°
2026-05-01 15:12 34.53672 -96.34891 41143 ft 444 kts 348°
2026-05-01 15:12 34.62907 -96.35966 41142 ft 444 kts 348°
2026-05-01 15:14 34.78220 -96.37753 41141 ft 444 kts 348°
2026-05-01 15:14 34.87415 -96.38831 41140 ft 444 kts 348°
2026-05-01 15:15 34.99617 -96.40257 41138 ft 436 kts 347°
2026-05-01 15:16 35.11550 -96.41666 41144 ft 430 kts 347°
2026-05-01 15:18 35.26509 -96.43435 41151 ft 433 kts 347°
2026-05-01 15:19 35.38468 -96.44852 41152 ft 432 kts 347°
2026-05-01 15:19 35.47404 -96.45915 41151 ft 432 kts 347°
2026-05-01 15:20 35.56371 -96.46983 41153 ft 432 kts 347°
2026-05-01 15:21 35.62345 -96.47696 41163 ft 432 kts 347°
2026-05-01 15:21 35.68321 -96.48410 41172 ft 432 kts 347°
2026-05-01 15:22 35.77330 -96.49489 41170 ft 433 kts 347°
2026-05-01 15:22 35.83287 -96.50204 41166 ft 432 kts 347°
2026-05-01 15:23 35.89280 -96.50924 41164 ft 432 kts 347°
2026-05-01 15:23 35.95251 -96.51643 41164 ft 432 kts 347°
2026-05-01 15:24 36.01240 -96.52364 41163 ft 432 kts 347°
2026-05-01 15:24 36.07209 -96.53085 41163 ft 432 kts 347°
2026-05-01 15:25 36.13192 -96.53808 41168 ft 432 kts 347°
2026-05-01 15:25 36.19150 -96.54529 41168 ft 432 kts 347°
2026-05-01 15:26 36.25135 -96.55254 41167 ft 432 kts 347°
2026-05-01 15:26 36.31112 -96.55980 41167 ft 432 kts 347°
2026-05-01 15:27 36.37067 -96.56705 41169 ft 432 kts 347°
2026-05-01 15:28 36.46050 -96.57800 41174 ft 432 kts 347°
2026-05-01 15:28 36.52014 -96.58527 41176 ft 432 kts 347°
2026-05-01 15:29 36.60923 -96.59618 41174 ft 432 kts 347°
2026-05-01 15:30 36.72874 -96.60927 41173 ft 437 kts 351°
2026-05-01 15:31 36.91085 -96.61492 41176 ft 437 kts 351°
2026-05-01 15:32 37.03196 -96.61851 41179 ft 432 kts 350°
2026-05-01 15:33 37.12056 -96.62114 41184 ft 420 kts 349°
2026-05-01 15:34 37.20799 -96.62383 41184 ft 418 kts 349°